Showing default

BLUE RING PATHFINDER, 62720

Orbit data source: Space-Track

BLUE RING PATHFINDER, 62720 is a payload satellite owned by Blue Origin (US) in HEO that was launched on Thu, 16 Jan 2025 UTC via an NEW GLENN launch vehicle from the Air Force Eastern Test Range (AFETR). Payloads include a variety of satellites, spacecraft, and rockets equipped with specific instruments for various scientific and technological missions. These include communications satellites like Starlink; space stations such as the ISS; scientific satellites like the Hubble; Earth observation satellites from companies like Planet Labs, Umbra, and HawkEye 360; GPS; miniature CubeSats for education and research; and military/defense satellites.

Loading next visibility...
BLUE RING PATHFINDER details
Identifier
62720, 2025-011A
Orbit
HEO
Last TLE update1 day ago
Origin
Flag of USBlue Origin (US)
ManufacturerBlue Origin
MissionNon-operational spacecraft
Bus & MotorBLUE RING, Unknown motor
Mass~33,980 kg wet, ~3,980 kg dry
Launch date (UTC)
2025-01-16 (1 month ago)
Launch vehicle
NEW GLENN
Launch site
Air Force Eastern Test Range (AFETR)
Object type
Payload
Rocket body
Debris
Shape & HBRUnknown
Radar Cross SectionLarge (>1 m²)

Expand to show TLE details & history

TLE from 1 day ago
0 BLUE RING PATHFINDER
1 62720U 25011A   25046.27288648 -.00000078  00000-0  00000-0 0  9994
2 62720  30.0111  23.4839 4887309 288.6448  25.6364  3.84317078  1157
Epoch: 2025-02-15T06:32Z
Definitive object data (Epoch: 2025-02-15T06:32:57.391Z)
Latitude-0.00026°
Longitude139.71789°
Altitude4,946.693 km
Speed6.873 km/s
True Right ascension01h 33m 55s
True Declination0° 00' 01"
Sunlit
Object was in daylight at TLE epoch
Visualization TLE readout
Latitude-13.88377°
Longitude-15.61677°
Altitude5,798.526 km
Speed6.506 km/s
Apparent Right ascension14h 57m 16s
Apparent Declination-45° 05' 21"
Sunlit
Object is in daylight
Visualization observer readout
Local Sidereal Time15:34:20
Azimuth186.55° SSW
Elevation4.588°
Doppler factor1
Orbital elements
Apogee altitude19,256.031 km
Perigee altitude2,425.306 km
Semi-major axis17,218.806 km
Eccentricity0.4887309
Inclination30.0111°
RAAN23.4839°
Arg. of periapsis288.6448°
True anomaly71.39142°
Mean anomaly25.6364°
Eccentric anomaly45.66566°
Mean motion0.96059 °/min
BSTARUnknown
Orbital period374.77 mins
Loading maneuver chart data...
Loading historical data...
Loading historical data...
Loading historical data...
Loading historical data...
Loading historical data...
Loading historical data...
Loading historical data...
Other satellites on launch #11 in the year 2025 (2025-01-16 UTC)

BLUE RING PATHFINDER Visibility forecast

Observer location: undefined°, undefined

Span
Click to sort rows by Start time (UTC) header in descending order
Start Az.
Max El. time (UTC)
Max El. Az.
Max El.
End time (UTC)
End Az.
279 mins2025-02-17 02:23:45.613Z241.012° WSW2025-02-17 03:44:45.613Z163.228° S44.034°2025-02-17 07:02:45.613Z116.563° SE
131 mins2025-02-17 10:36:45.613Z288.992° WNW2025-02-17 12:18:45.613Z269.016° W16.871°2025-02-17 12:47:45.613Z258.033° W
|